Tracking 30746 objects as of 20-Jun-2025
HD Live streaming from Space Station
objects crossing your sky now

HAWK-5C

Track HAWK-5C now!
10-day predictions


NORAD ID: 52754
Int'l Code: 2022-057Y
Perigee: 458.1 km
Apogee: 464.7 km
Inclination: 97.6 °
Period: 93.7 minutes
Semi major axis: 6832 km
RCS: Unknown
Launch date: May 25, 2022
Source: United States (US)
Launch site: AIR FORCE EASTERN TEST RANGE (AFETR)
Your satellite tracking list
Your tracking list is empty




NASA's NSSDC Master Catalog

Two Line Element Set (TLE):
1 52754U 22057Y   25170.93103349  .00009316  00000-0  25765-3 0  9993
2 52754  97.6177 307.5693 0004873 297.8088  62.2662 15.37242457170450
Source of the keplerian elements: AFSPC